| time (UTC) | temp C | wind direction | speed KPH | gust KPH | rain 1hr cm | rain 24hr cm | rain mn cm | humidity % | barometer mb |
| 20260903224609 | 23 | 290 | 3.2 | 17.7 | 0.00 | 0.00 | 0.00 | 28 | 1017.4 |
| 20260903224058 | 23 | 150 | 0.0 | 6.4 | 0.00 | 0.00 | 0.00 | 26 | 1017.4 |
| 20260903223602 | 23 | 252 | 1.6 | 6.4 | 0.00 | 0.00 | 0.00 | 28 | 1017.3 |
| 20260903223119 | 22 | 323 | 1.6 | 6.4 | 0.00 | 0.00 | 0.00 | 28 | 1017.4 |
| 20260903222559 | 22 | 18 | 1.6 | 6.4 | 0.00 | 0.00 | 0.00 | 25 | 1017.4 |
| 20260903222059 | 22 | 39 | 1.6 | 12.9 | 0.00 | 0.00 | 0.00 | 26 | 1017.7 |
| 20260903221621 | 22 | 250 | 3.2 | 12.9 | 0.00 | 0.00 | 0.00 | 26 | 1017.8 |
| 20260903221058 | 22 | 61 | 4.8 | 12.9 | 0.00 | 0.00 | 0.00 | 25 | 1017.7 |
| 20260903220558 | 22 | 342 | 4.8 | 9.7 | 0.00 | 0.00 | 0.00 | 25 | 1017.9 |
| 20260903220105 | 22 | 9 | 3.2 | 12.9 | 0.00 | 0.00 | 0.00 | 25 | 1017.8 |
| 20260903215558 | 22 | 0 | 6.4 | 19.3 | 0.00 | 0.00 | 0.00 | 25 | 1017.8 |
| 20260903215058 | 22 | 309 | 6.4 | 19.3 | 0.00 | 0.00 | 0.00 | 25 | 1017.8 |
| 20260903214603 | 22 | 86 | 1.6 | 16.1 | 0.00 | 0.00 | 0.00 | 26 | 1017.8 |
| 20260903214059 | 21 | 42 | 8.0 | 22.5 | 0.00 | 0.00 | 0.00 | 26 | 1017.9 |
| 20260903213601 | 21 | 123 | 6.4 | 22.5 | 0.00 | 0.00 | 0.00 | 25 | 1017.9 |
| 20260903213107 | 21 | 54 | 9.7 | 22.5 | 0.00 | 0.00 | 0.00 | 25 | 1017.8 |
| 20260903212559 | 21 | 139 | 14.5 | 22.5 | 0.00 | 0.00 | 0.00 | 26 | 1017.9 |
| 20260903212059 | 21 | 162 | 11.3 | 20.9 | 0.00 | 0.00 | 0.00 | 26 | 1017.9 |
| 20260903211612 | 21 | 97 | 6.4 | 20.9 | 0.00 | 0.00 | 0.00 | 25 | 1017.7 |
| 20260903211058 | 21 | 214 | 9.7 | 20.9 | 0.00 | 0.00 | 0.00 | 27 | 1017.9 |
| 20260903210559 | 21 | 130 | 6.4 | 19.3 | 0.00 | 0.00 | 0.00 | 25 | 1017.9 |
| 20260903210101 | 21 | 93 | 8.0 | 24.1 | 0.00 | 0.00 | 0.00 | 26 | 1018.1 |
| 20260903205559 | 20 | 53 | 9.7 | 24.1 | 0.00 | 0.00 | 0.00 | 26 | 1018.2 |
| 20260903205059 | 20 | 86 | 9.7 | 24.1 | 0.00 | 0.00 | 0.00 | 27 | 1018.1 |
| 20260903204605 | 20 | 101 | 11.3 | 22.5 | 0.00 | 0.00 | 0.00 | 27 | 1018.1 |
| 20260903204058 | 20 | 108 | 9.7 | 27.4 | 0.00 | 0.00 | 0.00 | 27 | 1018.2 |
| 20260903203558 | 20 | 179 | 11.3 | 27.4 | 0.00 | 0.00 | 0.00 | 27 | 1018.2 |
| 20260903203107 | 20 | 148 | 9.7 | 27.4 | 0.00 | 0.00 | 0.00 | 26 | 1018.2 |
| 20260903202559 | 20 | 113 | 11.3 | 25.7 | 0.00 | 0.00 | 0.00 | 26 | 1018.2 |
| 20260903202059 | 20 | 143 | 9.7 | 25.7 | 0.00 | 0.00 | 0.00 | 27 | 1018.2 |
| 20260903201606 | 20 | 350 | 8.0 | 32.2 | 0.00 | 0.00 | 0.00 | 26 | 1018.4 |
| 20260903201058 | 20 | 51 | 9.7 | 32.2 | 0.00 | 0.00 | 0.00 | 26 | 1018.4 |
| 20260903200558 | 20 | 82 | 11.3 | 22.5 | 0.00 | 0.00 | 0.00 | 27 | 1018.4 |
| 20260903200105 | 20 | 51 | 11.3 | 27.4 | 0.00 | 0.00 | 0.00 | 27 | 1018.5 |
| 20260903195558 | 20 | 121 | 9.7 | 27.4 | 0.00 | 0.00 | 0.00 | 27 | 1018.7 |
| 20260903195058 | 20 | 145 | 14.5 | 27.4 | 0.00 | 0.00 | 0.00 | 27 | 1018.8 |
| 20260903194603 | 20 | 101 | 12.9 | 24.1 | 0.00 | 0.00 | 0.00 | 27 | 1018.9 |
| 20260903194058 | 20 | 118 | 11.3 | 20.9 | 0.00 | 0.00 | 0.00 | 27 | 1018.9 |
| 20260903193558 | 20 | 41 | 6.4 | 17.7 | 0.00 | 0.00 | 0.00 | 27 | 1018.9 |
| 20260903193109 | 20 | 95 | 8.0 | 17.7 | 0.00 | 0.00 | 0.00 | 27 | 1018.9 |
| 20260903192559 | 20 | 78 | 11.3 | 17.7 | 0.00 | 0.00 | 0.00 | 27 | 1019.0 |
| 20260903192058 | 20 | 149 | 4.8 | 17.7 | 0.00 | 0.00 | 0.00 | 28 | 1019.2 |
| 20260903191605 | 20 | 114 | 6.4 | 29.0 | 0.00 | 0.00 | 0.00 | 27 | 1019.3 |
| 20260903191059 | 20 | 112 | 11.3 | 29.0 | 0.00 | 0.00 | 0.00 | 27 | 1019.3 |
| 20260903190559 | 20 | 70 | 8.0 | 19.3 | 0.00 | 0.00 | 0.00 | 27 | 1019.4 |
| 20260903190111 | 20 | 101 | 6.4 | 19.3 | 0.00 | 0.00 | 0.00 | 27 | 1019.3 |
| 20260903185558 | 20 | 99 | 6.4 | 19.3 | 0.00 | 0.00 | 0.00 | 28 | 1019.4 |
| 20260903185058 | 20 | 101 | 8.0 | 19.3 | 0.00 | 0.00 | 0.00 | 27 | 1019.5 |
| 20260903184607 | 21 | 114 | 4.8 | 11.3 | 0.00 | 0.00 | 0.00 | 26 | 1019.5 |
| 20260903184059 | 21 | 8 | 4.8 | 9.7 | 0.00 | 0.00 | 0.00 | 26 | 1019.5 |
| 20260903183558 | 21 | 323 | 3.2 | 6.4 | 0.00 | 0.00 | 0.00 | 25 | 1019.6 |
| 20260903183108 | 22 | 63 | 1.6 | 6.4 | 0.00 | 0.00 | 0.00 | 27 | 1019.6 |
| 20260903182559 | 21 | 328 | 1.6 | 8.0 | 0.00 | 0.00 | 0.00 | 26 | 1019.8 |
| 20260903182059 | 20 | 288 | 0.0 | 9.7 | 0.00 | 0.00 | 0.00 | 28 | 1019.9 |
| 20260903181605 | 20 | 298 | 1.6 | 9.7 | 0.00 | 0.00 | 0.00 | 28 | 1019.8 |
| 20260903181103 | 20 | 67 | 1.6 | 9.7 | 0.00 | 0.00 | 0.00 | 27 | 1019.9 |
| 20260903180558 | 20 | 303 | 3.2 | 9.7 | 0.00 | 0.00 | 0.00 | 28 | 1019.9 |
| 20260903180110 | 20 | 312 | 1.6 | 6.4 | 0.00 | 0.00 | 0.00 | 27 | 1019.9 |
| 20260903175558 | 20 | 307 | 3.2 | 6.4 | 0.00 | 0.00 | 0.00 | 28 | 1020.0 |
| 20260903175058 | 20 | 321 | 1.6 | 8.0 | 0.00 | 0.00 | 0.00 | 28 | 1019.8 |
| 20260903174620 | 20 | 28 | 1.6 | 8.0 | 0.00 | 0.00 | 0.00 | 27 | 1019.9 |
| 20260903174057 | 20 | 332 | 1.6 | 6.4 | 0.00 | 0.00 | 0.00 | 28 | 1019.9 |
| 20260903173557 | 20 | 27 | 0.0 | 6.4 | 0.00 | 0.00 | 0.00 | 29 | 1019.9 |
| 20260903173110 | 20 | 317 | 0.0 | 4.8 | 0.00 | 0.00 | 0.00 | 29 | 1019.9 |
| 20260903172558 | 19 | 72 | 0.0 | 6.4 | 0.00 | 0.00 | 0.00 | 29 | 1020.0 |
| 20260903172058 | 18 | 280 | 1.6 | 6.4 | 0.00 | 0.00 | 0.00 | 29 | 1020.0 |
| 20260903171605 | 18 | 349 | 1.6 | 6.4 | 0.00 | 0.00 | 0.00 | 29 | 1020.0 |
| 20260903171057 | 18 | 66 | 0.0 | 3.2 | 0.00 | 0.00 | 0.00 | 28 | 1020.1 |
| 20260903170600 | 18 | 272 | 0.0 | 6.4 | 0.00 | 0.00 | 0.00 | 29 | 1020.1 |
| 20260903170109 | 17 | 0 | 0.0 | 6.4 | 0.00 | 0.00 | 0.00 | 29 | 1020.2 |
| 20260903165557 | 17 | 32 | 0.0 | 9.7 | 0.00 | 0.00 | 0.00 | 30 | 1020.2 |
| 20260903165057 | 17 | 0 | 1.6 | 9.7 | 0.00 | 0.00 | 0.00 | 31 | 1020.2 |
| 20260903164608 | 16 | 349 | 1.6 | 6.4 | 0.00 | 0.00 | 0.00 | 31 | 1020.2 |
| 20260903164057 | 16 | 37 | 0.0 | 6.4 | 0.00 | 0.00 | 0.00 | 31 | 1020.2 |
| 20260903163556 | 16 | 42 | 3.2 | 6.4 | 0.00 | 0.00 | 0.00 | 31 | 1020.3 |
| 20260903163105 | 16 | 103 | 0.0 | 6.4 | 0.00 | 0.00 | 0.00 | 32 | 1020.3 |
| 20260903162559 | 15 | 74 | 1.6 | 6.4 | 0.00 | 0.00 | 0.00 | 31 | 1020.4 |
| 20260903162057 | 15 | 86 | 0.0 | 6.4 | 0.00 | 0.00 | 0.00 | 32 | 1020.4 |
| 20260903161607 | 15 | 58 | 1.6 | 6.4 | 0.00 | 0.00 | 0.00 | 33 | 1020.6 |
| 20260903161059 | 15 | 42 | 0.0 | 4.8 | 0.00 | 0.00 | 0.00 | 34 | 1020.5 |
| 20260903160557 | 14 | 0 | 0.0 | 4.8 | 0.00 | 0.00 | 0.00 | 34 | 1020.7 |
| 20260903160111 | 14 | 117 | 0.0 | 4.8 | 0.00 | 0.00 | 0.00 | 37 | 1020.9 |
| 20260903155558 | 14 | 54 | 0.0 | 4.8 | 0.00 | 0.00 | 0.00 | 38 | 1020.8 |
| 20260903155057 | 14 | 0 | 1.6 | 4.8 | 0.00 | 0.00 | 0.00 | 39 | 1021.0 |
| 20260903154607 | 14 | 53 | 0.0 | 3.2 | 0.00 | 0.00 | 0.00 | 45 | 1021.2 |
| 20260903154058 | 13 | 47 | 1.6 | 3.2 | 0.00 | 0.00 | 0.00 | 41 | 1021.1 |
| 20260903153557 | 13 | 51 | 0.0 | 3.2 | 0.00 | 0.00 | 0.00 | 46 | 1021.3 |
| 20260903153111 | 12 | 41 | 0.0 | 3.2 | 0.00 | 0.00 | 0.00 | 53 | 1021.2 |
| 20260903152600 | 12 | 0 | 0.0 | 1.6 | 0.00 | 0.00 | 0.00 | 55 | 1021.1 |
| 20260903152101 | 11 | 0 | 0.0 | 1.6 | 0.00 | 0.00 | 0.00 | 58 | 1021.1 |
| 20260903151606 | 11 | 0 | 0.0 | 1.6 | 0.00 | 0.00 | 0.00 | 60 | 1021.2 |
| 20260903151100 | 11 | 0 | 0.0 | 1.6 | 0.00 | 0.00 | 0.00 | 60 | 1021.1 |
| 20260903150557 | 11 | 0 | 0.0 | 0.0 | 0.00 | 0.00 | 0.00 | 58 | 1021.3 |
| 20260903150109 | 11 | 0 | 0.0 | 0.0 | 0.00 | 0.00 | 0.00 | 57 | 1021.3 |
| 20260903145557 | 11 | 0 | 0.0 | 0.0 | 0.00 | 0.00 | 0.00 | 54 | 1021.3 |
| 20260903145057 | 10 | 0 | 0.0 | 0.0 | 0.00 | 0.00 | 0.00 | 53 | 1021.4 |
| 20260903144610 | 9 | 0 | 0.0 | 0.0 | 0.00 | 0.00 | 0.00 | 55 | 1021.4 |
| 20260903144058 | 7 | 0 | 0.0 | 0.0 | 0.00 | 0.00 | 0.00 | 58 | 1021.3 |
| 20260903143558 | 6 | 0 | 0.0 | 0.0 | 0.00 | 0.00 | 0.00 | 59 | 1021.1 |
| 20260903143114 | 6 | 0 | 0.0 | 1.6 | 0.00 | 0.00 | 0.00 | 63 | 1021.0 |
| 20260903142559 | 5 | 0 | 0.0 | 1.6 | 0.00 | 0.00 | 0.00 | 65 | 1021.0 |
| 20260903142058 | 5 | 0 | 0.0 | 6.4 | 0.00 | 0.00 | 0.00 | 64 | 1020.9 |
| 20260903141614 | 4 | 0 | 0.0 | 6.4 | 0.00 | 0.00 | 0.00 | 67 | 1021.0 |
| 20260903141057 | 3 | 180 | 3.2 | 6.4 | 0.00 | 0.00 | 0.00 | 64 | 1020.9 |
| 20260903140558 | 3 | 0 | 0.0 | 3.2 | 0.00 | 0.00 | 0.00 | 68 | 1020.9 |
| 20260903140107 | 2 | 191 | 0.0 | 3.2 | 0.00 | 0.00 | 0.00 | 67 | 1020.8 |
| 20260903135557 | 2 | 0 | 0.0 | 3.2 | 0.00 | 0.00 | 0.00 | 69 | 1020.9 |
| 20260903135057 | 3 | 0 | 0.0 | 3.2 | 0.00 | 0.00 | 0.00 | 66 | 1020.8 |
| 20260903134620 | 3 | 0 | 0.0 | 1.6 | 0.00 | 0.00 | 0.00 | 66 | 1020.7 |
| 20260903134058 | 3 | 0 | 0.0 | 1.6 | 0.00 | 0.00 | 0.00 | 66 | 1020.6 |
| 20260903133558 | 3 | 0 | 0.0 | 1.6 | 0.00 | 0.00 | 0.00 | 66 | 1020.6 |
| 20260903133112 | 3 | 0 | 0.0 | 1.6 | 0.00 | 0.00 | 0.00 | 69 | 1020.5 |
| 20260903132600 | 3 | 0 | 0.0 | 1.6 | 0.00 | 0.00 | 0.00 | 65 | 1020.7 |
| 20260903132057 | 3 | 0 | 0.0 | 1.6 | 0.00 | 0.00 | 0.00 | 65 | 1020.7 |
| 20260903131605 | 3 | 0 | 0.0 | 0.0 | 0.00 | 0.00 | 0.00 | 66 | 1020.6 |
| 20260903131100 | 3 | 0 | 0.0 | 1.6 | 0.00 | 0.00 | 0.00 | 65 | 1020.6 |
| 20260903130558 | 3 | 0 | 0.0 | 1.6 | 0.00 | 0.00 | 0.00 | 64 | 1020.6 |
| 20260903130129 | 3 | 0 | 0.0 | 1.6 | 0.00 | 0.00 | 0.00 | 66 | 1020.7 |
| 20260903125557 | 3 | 0 | 0.0 | 3.2 | 0.00 | 0.00 | 0.00 | 66 | 1020.6 |
| 20260903125058 | 3 | 0 | 1.6 | 3.2 | 0.00 | 0.00 | 0.00 | 66 | 1020.6 |
| 20260903124612 | 3 | 0 | 0.0 | 0.0 | 0.00 | 0.00 | 0.00 | 65 | 1020.5 |
| 20260903124057 | 3 | 0 | 0.0 | 0.0 | 0.00 | 0.00 | 0.00 | 67 | 1020.4 |
| 20260903123557 | 3 | 0 | 0.0 | 1.6 | 0.00 | 0.00 | 0.00 | 66 | 1020.4 |
| 20260903123110 | 3 | 0 | 0.0 | 1.6 | 0.00 | 0.00 | 0.00 | 70 | 1020.5 |
| 20260903122557 | 3 | 0 | 0.0 | 1.6 | 0.00 | 0.00 | 0.00 | 68 | 1020.4 |
| 20260903122057 | 3 | 0 | 0.0 | 1.6 | 0.00 | 0.00 | 0.00 | 71 | 1020.4 |
| 20260903121602 | 3 | 0 | 0.0 | 1.6 | 0.00 | 0.00 | 0.00 | 66 | 1020.6 |
| 20260903121057 | 4 | 0 | 0.0 | 1.6 | 0.00 | 0.00 | 0.00 | 68 | 1020.6 |
| 20260903120557 | 4 | 0 | 0.0 | 1.6 | 0.00 | 0.00 | 0.00 | 68 | 1020.5 |
| 20260903120130 | 4 | 0 | 0.0 | 1.6 | 0.00 | 0.00 | 0.00 | 67 | 1020.6 |
| 20260903115600 | 4 | 0 | 0.0 | 3.2 | 0.00 | 0.00 | 0.00 | 66 | 1020.5 |
| 20260903115058 | 4 | 0 | 0.0 | 3.2 | 0.00 | 0.00 | 0.00 | 63 | 1020.4 |
| 20260903114606 | 4 | 161 | 0.0 | 1.6 | 0.00 | 0.00 | 0.00 | 65 | 1020.4 |
| 20260903114100 | 5 | 165 | 0.0 | 1.6 | 0.00 | 0.00 | 0.00 | 63 | 1020.5 |
| 20260903113557 | 5 | 0 | 0.0 | 1.6 | 0.00 | 0.00 | 0.00 | 62 | 1020.4 |
| 20260903113105 | 5 | 246 | 0.0 | 3.2 | 0.00 | 0.00 | 0.00 | 65 | 1020.6 |
| 20260903112558 | 4 | 0 | 0.0 | 3.2 | 0.00 | 0.00 | 0.00 | 63 | 1020.6 |
| 20260903112058 | 5 | 0 | 0.0 | 3.2 | 0.00 | 0.00 | 0.00 | 62 | 1020.6 |
| 20260903111606 | 4 | 0 | 0.0 | 1.6 | 0.00 | 0.00 | 0.00 | 62 | 1020.6 |
| 20260903111057 | 5 | 0 | 0.0 | 1.6 | 0.00 | 0.00 | 0.00 | 61 | 1020.7 |
| 20260903110600 | 5 | 0 | 0.0 | 1.6 | 0.00 | 0.00 | 0.00 | 60 | 1020.7 |
| 20260903110104 | 5 | 0 | 0.0 | 1.6 | 0.00 | 0.00 | 0.00 | 59 | 1020.6 |
| 20260903105600 | 5 | 0 | 0.0 | 3.2 | 0.00 | 0.00 | 0.00 | 59 | 1020.6 |
| 20260903105100 | 5 | 188 | 0.0 | 3.2 | 0.00 | 0.00 | 0.00 | 60 | 1020.7 |
| 20260903104606 | 5 | 0 | 1.6 | 3.2 | 0.00 | 0.00 | 0.00 | 60 | 1020.9 |
| 20260903104058 | 5 | 0 | 0.0 | 1.6 | 0.00 | 0.00 | 0.00 | 59 | 1020.8 |
| 20260903103557 | 5 | 0 | 0.0 | 1.6 | 0.00 | 0.00 | 0.00 | 59 | 1021.0 |
| 20260903103106 | 5 | 163 | 0.0 | 0.0 | 0.00 | 0.00 | 0.00 | 60 | 1021.0 |
| 20260903102558 | 5 | 0 | 0.0 | 1.6 | 0.00 | 0.00 | 0.00 | 59 | 1020.9 |
| 20260903102057 | 5 | 0 | 0.0 | 1.6 | 0.00 | 0.00 | 0.00 | 59 | 1020.8 |
| 20260903101608 | 5 | 173 | 0.0 | 6.4 | 0.00 | 0.00 | 0.00 | 60 | 1020.9 |
| 20260903101057 | 5 | 184 | 1.6 | 6.4 | 0.00 | 0.00 | 0.00 | 60 | 1021.0 |
| 20260903100558 | 5 | 151 | 0.0 | 1.6 | 0.00 | 0.00 | 0.00 | 59 | 1021.0 |
| 20260903100106 | 5 | 0 | 0.0 | 1.6 | 0.00 | 0.00 | 0.00 | 60 | 1020.9 |
| 20260903095557 | 5 | 0 | 0.0 | 3.2 | 0.00 | 0.00 | 0.00 | 61 | 1020.9 |
| 20260903095101 | 5 | 235 | 0.0 | 3.2 | 0.00 | 0.00 | 0.00 | 61 | 1021.0 |
| 20260903094610 | 5 | 0 | 1.6 | 3.2 | 0.00 | 0.00 | 0.00 | 60 | 1021.1 |
| 20260903094058 | 5 | 0 | 0.0 | 4.8 | 0.00 | 0.00 | 0.00 | 59 | 1021.0 |
| 20260903093557 | 5 | 0 | 0.0 | 4.8 | 0.00 | 0.00 | 0.00 | 58 | 1021.0 |
| 20260903093110 | 6 | 165 | 0.0 | 1.6 | 0.00 | 0.00 | 0.00 | 58 | 1021.0 |
| 20260903092557 | 6 | 0 | 0.0 | 3.2 | 0.00 | 0.00 | 0.00 | 58 | 1021.2 |
| 20260903092058 | 6 | 0 | 0.0 | 3.2 | 0.00 | 0.00 | 0.00 | 58 | 1021.3 |
| 20260903091603 | 6 | 0 | 1.6 | 3.2 | 0.00 | 0.00 | 0.00 | 58 | 1021.4 |
| 20260903091058 | 6 | 142 | 0.0 | 1.6 | 0.00 | 0.00 | 0.00 | 59 | 1021.4 |
| 20260903090558 | 6 | 0 | 0.0 | 3.2 | 0.00 | 0.00 | 0.00 | 59 | 1021.5 |
| 20260903090108 | 6 | 0 | 0.0 | 3.2 | 0.00 | 0.00 | 0.00 | 60 | 1021.6 |
| 20260903085559 | 6 | 243 | 0.0 | 1.6 | 0.00 | 0.00 | 0.00 | 60 | 1021.7 |
| 20260903085057 | 6 | 0 | 0.0 | 1.6 | 0.00 | 0.00 | 0.00 | 61 | 1021.8 |
| 20260903084604 | 6 | 233 | 0.0 | 3.2 | 0.00 | 0.00 | 0.00 | 62 | 1021.7 |
| 20260903084103 | 5 | 0 | 0.0 | 4.8 | 0.00 | 0.00 | 0.00 | 62 | 1021.8 |
| 20260903083558 | 5 | 156 | 1.6 | 4.8 | 0.00 | 0.00 | 0.00 | 63 | 1021.9 |
| 20260903083115 | 6 | 164 | 0.0 | 3.2 | 0.00 | 0.00 | 0.00 | 61 | 1021.7 |
| 20260903082558 | 5 | 195 | 0.0 | 4.8 | 0.00 | 0.00 | 0.00 | 62 | 1021.8 |
| 20260903082058 | 5 | 229 | 0.0 | 4.8 | 0.00 | 0.00 | 0.00 | 62 | 1021.8 |
| 20260903081625 | 6 | 189 | 0.0 | 3.2 | 0.00 | 0.00 | 0.00 | 60 | 1021.7 |
| 20260903081057 | 6 | 0 | 0.0 | 3.2 | 0.00 | 0.00 | 0.00 | 62 | 1021.7 |
| 20260903080603 | 6 | 0 | 1.6 | 3.2 | 0.00 | 0.00 | 0.00 | 62 | 1021.7 |
| 20260903080104 | 6 | 201 | 0.0 | 3.2 | 0.00 | 0.00 | 0.00 | 62 | 1021.7 |
| 20260903075557 | 6 | 0 | 1.6 | 3.2 | 0.00 | 0.00 | 0.00 | 61 | 1021.7 |
| 20260903075058 | 6 | 177 | 0.0 | 3.2 | 0.00 | 0.00 | 0.00 | 61 | 1021.8 |
| 20260903074614 | 6 | 170 | 0.0 | 3.2 | 0.00 | 0.00 | 0.00 | 61 | 1021.8 |
| 20260903074058 | 6 | 0 | 0.0 | 3.2 | 0.00 | 0.00 | 0.00 | 61 | 1021.7 |
| 20260903073558 | 6 | 174 | 0.0 | 3.2 | 0.00 | 0.00 | 0.00 | 61 | 1021.7 |
| 20260903073136 | 6 | 0 | 0.0 | 1.6 | 0.00 | 0.00 | 0.00 | 60 | 1021.7 |
| 20260903072557 | 6 | 0 | 0.0 | 1.6 | 0.00 | 0.00 | 0.00 | 62 | 1021.8 |
| 20260903072058 | 6 | 0 | 0.0 | 3.2 | 0.00 | 0.00 | 0.00 | 61 | 1021.7 |
| 20260903071621 | 6 | 0 | 0.0 | 3.2 | 0.00 | 0.00 | 0.00 | 60 | 1021.7 |
| 20260903071100 | 6 | 0 | 0.0 | 3.2 | 0.00 | 0.00 | 0.00 | 61 | 1021.8 |
| 20260903070557 | 7 | 0 | 0.0 | 3.2 | 0.00 | 0.00 | 0.00 | 62 | 1021.7 |
| 20260903070105 | 7 | 0 | 0.0 | 3.2 | 0.00 | 0.00 | 0.00 | 59 | 1021.8 |
| 20260903065557 | 7 | 0 | 0.0 | 1.6 | 0.00 | 0.00 | 0.00 | 61 | 1022.0 |
| 20260903065058 | 7 | 0 | 0.0 | 1.6 | 0.00 | 0.00 | 0.00 | 59 | 1022.0 |
| 20260903064608 | 7 | 0 | 0.0 | 1.6 | 0.00 | 0.00 | 0.00 | 59 | 1022.0 |
| 20260903064058 | 7 | 0 | 0.0 | 1.6 | 0.00 | 0.00 | 0.00 | 60 | 1022.0 |
| 20260903063558 | 7 | 0 | 0.0 | 1.6 | 0.00 | 0.00 | 0.00 | 59 | 1022.0 |
| 20260903063104 | 7 | 0 | 0.0 | 1.6 | 0.00 | 0.00 | 0.00 | 59 | 1022.0 |
| 20260903062557 | 7 | 0 | 0.0 | 1.6 | 0.00 | 0.00 | 0.00 | 59 | 1022.2 |
| 20260903062057 | 7 | 171 | 0.0 | 1.6 | 0.00 | 0.00 | 0.00 | 60 | 1022.2 |
| 20260903061604 | 7 | 0 | 0.0 | 1.6 | 0.00 | 0.00 | 0.00 | 60 | 1022.3 |
| 20260903061057 | 8 | 0 | 0.0 | 0.0 | 0.00 | 0.00 | 0.00 | 60 | 1022.4 |
| 20260903060557 | 8 | 0 | 0.0 | 3.2 | 0.00 | 0.00 | 0.00 | 59 | 1022.3 |
| 20260903060149 | 8 | 0 | 0.0 | 3.2 | 0.00 | 0.00 | 0.00 | 59 | 1022.5 |
| 20260903055558 | 8 | 173 | 0.0 | 3.2 | 0.00 | 0.00 | 0.00 | 59 | 1022.6 |
| 20260903055057 | 8 | 0 | 0.0 | 3.2 | 0.00 | 0.00 | 0.00 | 58 | 1022.5 |
| 20260903054605 | 8 | 0 | 0.0 | 1.6 | 0.00 | 0.00 | 0.00 | 58 | 1022.6 |
| 20260903054058 | 8 | 0 | 0.0 | 1.6 | 0.00 | 0.00 | 0.00 | 58 | 1022.6 |
| 20260903053600 | 8 | 0 | 0.0 | 1.6 | 0.00 | 0.00 | 0.00 | 59 | 1022.6 |
| 20260903053104 | 8 | 0 | 0.0 | 3.2 | 0.00 | 0.00 | 0.00 | 59 | 1022.5 |
| 20260903052557 | 8 | 0 | 0.0 | 3.2 | 0.00 | 0.00 | 0.00 | 60 | 1022.6 |
| 20260903052059 | 8 | 0 | 0.0 | 3.2 | 0.00 | 0.00 | 0.00 | 60 | 1022.6 |
| 20260903051609 | 8 | 0 | 0.0 | 3.2 | 0.00 | 0.00 | 0.00 | 60 | 1022.8 |
| 20260903051058 | 8 | 177 | 0.0 | 3.2 | 0.00 | 0.00 | 0.00 | 60 | 1022.9 |
| 20260903050601 | 9 | 0 | 0.0 | 3.2 | 0.00 | 0.00 | 0.00 | 60 | 1022.9 |
| 20260903050107 | 9 | 238 | 0.0 | 3.2 | 0.00 | 0.00 | 0.00 | 61 | 1023.0 |
| 20260903045558 | 9 | 0 | 1.6 | 4.8 | 0.00 | 0.00 | 0.00 | 61 | 1022.9 |
| 20260903045058 | 9 | 0 | 0.0 | 6.4 | 0.00 | 0.00 | 0.00 | 61 | 1023.0 |
| 20260903044605 | 9 | 348 | 0.0 | 6.4 | 0.00 | 0.00 | 0.00 | 60 | 1023.0 |
| 20260903044100 | 9 | 107 | 3.2 | 6.4 | 0.00 | 0.00 | 0.00 | 58 | 1022.9 |
| 20260903043600 | 9 | 138 | 0.0 | 0.0 | 0.00 | 0.00 | 0.00 | 56 | 1022.9 |
| 20260903043105 | 10 | 0 | 0.0 | 0.0 | 0.00 | 0.00 | 0.00 | 55 | 1022.8 |
| 20260903042558 | 10 | 0 | 0.0 | 3.2 | 0.00 | 0.00 | 0.00 | 55 | 1022.8 |
| 20260903042058 | 10 | 0 | 0.0 | 3.2 | 0.00 | 0.00 | 0.00 | 55 | 1022.9 |
| 20260903041608 | 10 | 282 | 0.0 | 3.2 | 0.00 | 0.00 | 0.00 | 55 | 1022.9 |
| 20260903041058 | 10 | 0 | 0.0 | 3.2 | 0.00 | 0.00 | 0.00 | 54 | 1022.9 |
| 20260903040600 | 11 | 325 | 0.0 | 4.8 | 0.00 | 0.00 | 0.00 | 54 | 1022.8 |
| 20260903040112 | 11 | 0 | 0.0 | 4.8 | 0.00 | 0.00 | 0.00 | 53 | 1022.8 |
| 20260903035558 | 10 | 308 | 0.0 | 4.8 | 0.00 | 0.00 | 0.00 | 53 | 1022.8 |
| 20260903035058 | 10 | 311 | 0.0 | 1.6 | 0.00 | 0.00 | 0.00 | 53 | 1022.7 |
| 20260903034603 | 11 | 0 | 0.0 | 3.2 | 0.00 | 0.00 | 0.00 | 52 | 1022.6 |
| 20260903034058 | 11 | 0 | 0.0 | 3.2 | 0.00 | 0.00 | 0.00 | 50 | 1022.5 |
| 20260903033558 | 11 | 0 | 0.0 | 4.8 | 0.00 | 0.00 | 0.00 | 49 | 1022.6 |
| 20260903033102 | 12 | 0 | 0.0 | 8.0 | 0.00 | 0.00 | 0.00 | 48 | 1022.4 |
| 20260903032558 | 12 | 0 | 0.0 | 8.0 | 0.00 | 0.00 | 0.00 | 47 | 1022.3 |
| 20260903032057 | 12 | 284 | 1.6 | 8.0 | 0.00 | 0.00 | 0.00 | 46 | 1022.4 |
| 20260903031605 | 12 | 319 | 0.0 | 8.0 | 0.00 | 0.00 | 0.00 | 48 | 1022.4 |
| 20260903031058 | 12 | 0 | 0.0 | 6.4 | 0.00 | 0.00 | 0.00 | 44 | 1022.2 |
| 20260903030600 | 12 | 0 | 0.0 | 6.4 | 0.00 | 0.00 | 0.00 | 44 | 1022.2 |
| 20260903030115 | 13 | 0 | 0.0 | 11.3 | 0.00 | 0.00 | 0.00 | 44 | 1021.9 |
| 20260903025558 | 13 | 297 | 1.6 | 11.3 | 0.00 | 0.00 | 0.00 | 42 | 1021.8 |
| 20260903025058 | 13 | 37 | 4.8 | 19.3 | 0.00 | 0.00 | 0.00 | 42 | 1021.7 |
| 20260903024610 | 13 | 344 | 8.0 | 19.3 | 0.00 | 0.00 | 0.00 | 43 | 1021.7 |
| 20260903024059 | 13 | 37 | 6.4 | 16.1 | 0.00 | 0.00 | 0.00 | 44 | 1021.6 |
| 20260903023558 | 13 | 7 | 1.6 | 8.0 | 0.00 | 0.00 | 0.00 | 44 | 1021.5 |
| 20260903023125 | 13 | 264 | 0.0 | 8.0 | 0.00 | 0.00 | 0.00 | 42 | 1021.6 |
| 20260903022558 | 14 | 169 | 0.0 | 4.8 | 0.00 | 0.00 | 0.00 | 41 | 1021.5 |
| 20260903022058 | 14 | 8 | 0.0 | 3.2 | 0.00 | 0.00 | 0.00 | 41 | 1021.4 |
| 20260903021612 | 15 | 45 | 0.0 | 3.2 | 0.00 | 0.00 | 0.00 | 38 | 1021.4 |
| 20260903021059 | 16 | 314 | 0.0 | 8.0 | 0.00 | 0.00 | 0.00 | 36 | 1021.4 |
| 20260903020558 | 16 | 0 | 0.0 | 8.0 | 0.00 | 0.00 | 0.00 | 35 | 1021.3 |
| 20260903020112 | 16 | 233 | 1.6 | 9.7 | 0.00 | 0.00 | 0.00 | 34 | 1021.3 |
| 20260903015600 | 16 | 259 | 1.6 | 9.7 | 0.00 | 0.00 | 0.00 | 35 | 1021.3 |
| 20260903015059 | 16 | 229 | 1.6 | 12.9 | 0.00 | 0.00 | 0.00 | 35 | 1021.3 |
| 20260903014610 | 16 | 260 | 3.2 | 12.9 | 0.00 | 0.00 | 0.00 | 35 | 1021.4 |
| 20260903014058 | 17 | 164 | 4.8 | 12.9 | 0.00 | 0.00 | 0.00 | 33 | 1021.3 |
| 20260903013632 | 17 | 172 | 4.8 | 19.3 | 0.00 | 0.00 | 0.00 | 34 | 1021.5 |
| 20260903013109 | 17 | 201 | 9.7 | 19.3 | 0.00 | 0.00 | 0.00 | 32 | 1021.4 |
| 20260903012558 | 17 | 168 | 3.2 | 11.3 | 0.00 | 0.00 | 0.00 | 32 | 1021.4 |
| 20260903012058 | 17 | 231 | 4.8 | 11.3 | 0.00 | 0.00 | 0.00 | 32 | 1021.3 |
| 20260903011606 | 18 | 167 | 3.2 | 11.3 | 0.00 | 0.00 | 0.00 | 32 | 1021.4 |
| 20260903011101 | 18 | 153 | 1.6 | 12.9 | 0.00 | 0.00 | 0.00 | 32 | 1021.4 |
| 20260903010558 | 18 | 161 | 3.2 | 12.9 | 0.00 | 0.00 | 0.00 | 30 | 1021.5 |
| 20260903005558 | 18 | 157 | 4.8 | 16.1 | 0.00 | 0.00 | 0.00 | 31 | 1021.5 |
| 20260903005058 | 18 | 138 | 3.2 | 24.1 | 0.00 | 0.00 | 0.00 | 30 | 1021.4 |
| 20260903004604 | 18 | 188 | 3.2 | 24.1 | 0.00 | 0.00 | 0.00 | 30 | 1021.3 |
| 20260903004057 | 18 | 243 | 6.4 | 17.7 | 0.00 | 0.00 | 0.00 | 30 | 1021.3 |
| 20260903003557 | 18 | 172 | 8.0 | 17.7 | 0.00 | 0.00 | 0.00 | 30 | 1021.4 |
| 20260903003109 | 19 | 163 | 6.4 | 17.7 | 0.00 | 0.00 | 0.00 | 29 | 1021.5 |
| 20260903002558 | 19 | 234 | 6.4 | 17.7 | 0.00 | 0.00 | 0.00 | 29 | 1021.3 |
| 20260903002058 | 19 | 153 | 4.8 | 19.3 | 0.00 | 0.00 | 0.00 | 30 | 1021.4 |
| 20260903001625 | 19 | 160 | 4.8 | 19.3 | 0.00 | 0.00 | 0.00 | 29 | 1021.4 |
| 20260903001057 | 19 | 127 | 6.4 | 14.5 | 0.00 | 0.00 | 0.00 | 27 | 1021.4 |
| 20260903000557 | 19 | 175 | 6.4 | 17.7 | 0.00 | 0.00 | 0.00 | 30 | 1021.4 |
| 20260903000103 | 19 | 221 | 9.7 | 17.7 | 0.00 | 0.00 | 0.00 | 28 | 1021.6 |
| 20260902235557 | 20 | 156 | 1.6 | 25.7 | 0.00 | 0.00 | 0.00 | 29 | 1021.4 |
| 20260902235058 | 20 | 174 | 4.8 | 25.7 | 0.00 | 0.00 | 0.00 | 27 | 1021.4 |
| 20260902234627 | 20 | 0 | 8.0 | 29.0 | 0.00 | 0.00 | 0.00 | 26 | 1021.5 |
| 20260902234100 | 20 | 175 | 9.7 | 29.0 | 0.00 | 0.00 | 0.00 | 28 | 1021.4 |
| 20260902233557 | 20 | 172 | 4.8 | 25.7 | 0.00 | 0.00 | 0.00 | 28 | 1021.5 |
| 20260902233105 | 19 | 200 | 6.4 | 25.7 | 0.00 | 0.00 | 0.00 | 28 | 1021.3 |
| 20260902232601 | 19 | 163 | 12.9 | 20.9 | 0.00 | 0.00 | 0.00 | 27 | 1021.3 |
| 20260902232057 | 19 | 197 | 11.3 | 17.7 | 0.00 | 0.00 | 0.00 | 27 | 1021.4 |
| 20260902231614 | 19 | 266 | 4.8 | 22.5 | 0.00 | 0.00 | 0.00 | 27 | 1021.3 |
| 20260902231057 | 19 | 179 | 6.4 | 22.5 | 0.00 | 0.00 | 0.00 | 27 | 1021.5 |
| 20260902230600 | 20 | 163 | 8.0 | 22.5 | 0.00 | 0.00 | 0.00 | 28 | 1021.5 |
| 20260902230115 | 19 | 94 | 9.7 | 29.0 | 0.00 | 0.00 | 0.00 | 28 | 1021.3 |
| 20260902225557 | 19 | 289 | 12.9 | 29.0 | 0.00 | 0.00 | 0.00 | 28 | 1021.4 |
| 20260902225058 | 20 | 184 | 8.0 | 20.9 | 0.00 | 0.00 | 0.00 | 28 | 1021.4 |